CPA3251 ZSSS-ZSPD

Flight info

Callsign CPA3251
Flight time 0h 22m
Altitude 6900
Route PK DCT JTN DCT PDL
Aircraft B77W/H-SDE1E2E3FGHIJ2J3J4J5M1RWXY/LB1D1

Departure

Time 2026-04-30 10:16
Airport Shanghai Hongqiao International Airport (ZSSS)

Arrival

Time 2026-04-30 10:39
Airport Shanghai Pudong International Airport (ZSPD)
Time Latitude Longitude Altitude Speed Heading
2026-04-30 09:52 31.20724 121.32758 24 ft 0 kts 267°
2026-04-30 10:01 31.20724 121.32768 26 ft 4 kts 270°
2026-04-30 10:02 31.20727 121.32816 27 ft 3 kts 232°
2026-04-30 10:02 31.20743 121.32835 29 ft 4 kts 204°
2026-04-30 10:02 31.20765 121.32841 29 ft 4 kts 176°
2026-04-30 10:02 31.20787 121.32839 29 ft 1 kts 177°
2026-04-30 10:03 31.20791 121.32838 29 ft 4 kts 177°
2026-04-30 10:06 31.20787 121.32839 24 ft 2 kts 177°
2026-04-30 10:07 31.20771 121.32839 27 ft 4 kts 177°
2026-04-30 10:07 31.20735 121.32867 28 ft 9 kts 116°
2026-04-30 10:07 31.20697 121.32926 27 ft 10 kts 160°
2026-04-30 10:07 31.20626 121.32928 24 ft 11 kts 178°
2026-04-30 10:08 31.20528 121.32933 25 ft 19 kts 177°
2026-04-30 10:08 31.20376 121.32941 27 ft 23 kts 177°
2026-04-30 10:08 31.20220 121.32950 27 ft 23 kts 177°
2026-04-30 10:08 31.20064 121.32959 27 ft 22 kts 177°
2026-04-30 10:09 31.19908 121.32967 25 ft 22 kts 177°
2026-04-30 10:09 31.19752 121.32975 25 ft 22 kts 178°
2026-04-30 10:09 31.19593 121.32984 25 ft 22 kts 177°
2026-04-30 10:09 31.19438 121.32992 28 ft 22 kts 177°
2026-04-30 10:10 31.19282 121.33001 26 ft 22 kts 178°
2026-04-30 10:10 31.19124 121.33009 28 ft 22 kts 177°
2026-04-30 10:10 31.18967 121.33018 26 ft 22 kts 177°
2026-04-30 10:10 31.18811 121.33026 27 ft 22 kts 177°
2026-04-30 10:11 31.18655 121.33035 26 ft 22 kts 177°
2026-04-30 10:11 31.18516 121.33042 26 ft 18 kts 177°
2026-04-30 10:11 31.18390 121.33049 26 ft 18 kts 178°
2026-04-30 10:11 31.18339 121.33120 25 ft 13 kts 93°
2026-04-30 10:12 31.18341 121.33178 26 ft 0 kts 86°
2026-04-30 10:13 31.18341 121.33179 27 ft 1 kts 86°
2026-04-30 10:14 31.18341 121.33182 28 ft 0 kts 86°
2026-04-30 10:14 31.18341 121.33185 28 ft 1 kts 86°
2026-04-30 10:14 31.18344 121.33273 24 ft 9 kts 88°
2026-04-30 10:15 31.18380 121.33323 25 ft 9 kts
2026-04-30 10:15 31.18405 121.33323 27 ft 0 kts 358°
2026-04-30 10:15 31.18496 121.33318 28 ft 41 kts 357°
2026-04-30 10:16 31.19100 121.33283 24 ft 130 kts 357°
2026-04-30 10:16 31.20220 121.33217 201 ft 178 kts 357°
2026-04-30 10:16 31.21452 121.33183 1073 ft 174 kts 358°
2026-04-30 10:17 31.24138 121.33106 2337 ft 219 kts 358°
2026-04-30 10:17 31.27519 121.33022 3043 ft 254 kts 359°
2026-04-30 10:17 31.29287 121.32986 3730 ft 255 kts 359°
2026-04-30 10:18 31.31061 121.32954 4891 ft 255 kts 359°
2026-04-30 10:18 31.32832 121.32934 6017 ft 255 kts 359°
2026-04-30 10:18 31.34637 121.32930 6685 ft 262 kts 359°
2026-04-30 10:19 31.38332 121.32903 6900 ft 266 kts 356°
2026-04-30 10:19 31.40181 121.32821 6903 ft 266 kts 356°
2026-04-30 10:19 31.42026 121.32743 6898 ft 264 kts 356°
2026-04-30 10:19 31.43848 121.32784 6887 ft 262 kts 10°
2026-04-30 10:20 31.45507 121.33692 6905 ft 271 kts 37°
2026-04-30 10:20 31.47009 121.37684 6909 ft 282 kts 87°
2026-04-30 10:20 31.46912 121.39990 6909 ft 284 kts 92°
2026-04-30 10:21 31.46734 121.42296 6901 ft 284 kts 93°
2026-04-30 10:21 31.46545 121.44570 6900 ft 284 kts 93°
2026-04-30 10:21 31.46349 121.46873 6896 ft 284 kts 93°
2026-04-30 10:21 31.46151 121.49166 6902 ft 284 kts 93°
2026-04-30 10:22 31.45787 121.51423 6893 ft 285 kts 111°
2026-04-30 10:22 31.44658 121.53337 6905 ft 291 kts 138°
2026-04-30 10:22 31.43523 121.54225 6906 ft 291 kts 155°
2026-04-30 10:22 31.41639 121.55091 6913 ft 291 kts 162°
2026-04-30 10:23 31.39718 121.55822 6905 ft 290 kts 163°
2026-04-30 10:23 31.37801 121.56531 6897 ft 289 kts 163°
2026-04-30 10:23 31.35885 121.57238 6899 ft 289 kts 163°
2026-04-30 10:23 31.33963 121.57942 6900 ft 289 kts 163°
2026-04-30 10:24 31.32075 121.58633 6887 ft 281 kts 163°
2026-04-30 10:24 31.30210 121.59313 6895 ft 280 kts 163°
2026-04-30 10:24 31.28356 121.59989 6898 ft 278 kts 163°
2026-04-30 10:24 31.26523 121.60657 6770 ft 276 kts 163°
2026-04-30 10:25 31.24690 121.61320 6503 ft 275 kts 163°
2026-04-30 10:25 31.22867 121.61973 6187 ft 273 kts 163°
2026-04-30 10:25 31.21050 121.62619 5907 ft 272 kts 163°
2026-04-30 10:25 31.19247 121.63254 5627 ft 270 kts 163°
2026-04-30 10:26 31.17453 121.63882 5347 ft 268 kts 163°
2026-04-30 10:26 31.15672 121.64499 5089 ft 265 kts 163°
2026-04-30 10:26 31.13941 121.65092 5093 ft 256 kts 163°
2026-04-30 10:26 31.12222 121.65680 5098 ft 258 kts 163°
2026-04-30 10:27 31.10497 121.66269 5091 ft 259 kts 163°
2026-04-30 10:27 31.08753 121.66862 4908 ft 263 kts 163°
2026-04-30 10:27 31.06981 121.67462 4632 ft 266 kts 163°
2026-04-30 10:27 31.05200 121.68061 4433 ft 261 kts 163°
2026-04-30 10:28 31.03460 121.68643 4270 ft 259 kts 163°
2026-04-30 10:28 31.01745 121.69212 4115 ft 254 kts 163°
2026-04-30 10:28 31.00116 121.69750 3937 ft 248 kts 163°
2026-04-30 10:28 30.98471 121.70290 3728 ft 244 kts 163°
2026-04-30 10:29 30.96851 121.70815 3511 ft 240 kts 163°
2026-04-30 10:29 30.95254 121.71330 3300 ft 236 kts 163°
2026-04-30 10:29 30.93694 121.71825 3102 ft 227 kts 163°
2026-04-30 10:29 30.92208 121.72286 3033 ft 214 kts 163°
2026-04-30 10:30 30.90815 121.72718 3009 ft 201 kts 163°
2026-04-30 10:30 30.89449 121.73143 3028 ft 202 kts 163°
2026-04-30 10:30 30.88112 121.73600 2994 ft 198 kts 152°
2026-04-30 10:30 30.87141 121.74649 3005 ft 190 kts 112°
2026-04-30 10:31 30.86963 121.76117 3014 ft 182 kts 77°
2026-04-30 10:31 30.87237 121.77555 3025 ft 185 kts 74°
2026-04-30 10:31 30.87523 121.79015 3008 ft 185 kts 73°
2026-04-30 10:31 30.87806 121.80472 3016 ft 183 kts 73°
2026-04-30 10:32 30.88086 121.81911 3012 ft 182 kts 73°
2026-04-30 10:32 30.88367 121.83347 3007 ft 182 kts 74°
2026-04-30 10:32 30.88806 121.84688 2990 ft 175 kts 47°
2026-04-30 10:32 30.89816 121.85403 3025 ft 172 kts 14°
2026-04-30 10:33 30.91005 121.85746 3028 ft 180 kts 14°
2026-04-30 10:33 30.92213 121.86096 3009 ft 177 kts 14°
2026-04-30 10:33 30.93419 121.86338 2990 ft 176 kts 356°
2026-04-30 10:33 30.94605 121.86059 3019 ft 176 kts 349°
2026-04-30 10:34 30.95812 121.85711 3012 ft 180 kts 347°
2026-04-30 10:34 30.97014 121.85299 3009 ft 180 kts 345°
2026-04-30 10:34 30.98210 121.84859 2955 ft 183 kts 344°
2026-04-30 10:34 30.99427 121.84402 2696 ft 180 kts 344°
2026-04-30 10:35 31.00615 121.83953 2486 ft 174 kts 345°
2026-04-30 10:35 31.01742 121.83525 2215 ft 165 kts 345°
2026-04-30 10:35 31.02793 121.83128 2017 ft 154 kts 345°
2026-04-30 10:35 31.03817 121.82742 1801 ft 155 kts 345°
2026-04-30 10:36 31.04815 121.82363 1570 ft 144 kts 345°
2026-04-30 10:36 31.05715 121.82024 1406 ft 132 kts 345°
2026-04-30 10:36 31.06586 121.81696 1226 ft 134 kts 344°
2026-04-30 10:36 31.07468 121.81364 1047 ft 133 kts 344°
2026-04-30 10:37 31.08347 121.81029 878 ft 133 kts 344°
2026-04-30 10:37 31.09244 121.80690 703 ft 137 kts 344°
2026-04-30 10:37 31.10144 121.80344 552 ft 136 kts 343°
2026-04-30 10:37 31.11049 121.79996 359 ft 138 kts 344°
2026-04-30 10:38 31.11964 121.79654 201 ft 138 kts 344°
2026-04-30 10:38 31.12890 121.79312 33 ft 137 kts 344°
2026-04-30 10:38 31.13697 121.79010 27 ft 102 kts 342°
2026-04-30 10:38 31.14226 121.78809 27 ft 58 kts 342°
2026-04-30 10:39 31.14502 121.78740 28 ft 33 kts
2026-04-30 10:39 31.14670 121.78772 28 ft 17 kts 11°
2026-04-30 10:39 31.14737 121.78847 28 ft 14 kts 68°
2026-04-30 10:39 31.14762 121.78937 29 ft 1 kts 72°
2026-04-30 10:40 31.14763 121.78939 29 ft 1 kts 72°
2026-04-30 10:40 31.14765 121.78948 29 ft 4 kts 72°
2026-04-30 10:41 31.14788 121.79030 29 ft 12 kts 72°
2026-04-30 10:41 31.14814 121.79125 30 ft 12 kts 72°
2026-04-30 10:41 31.14842 121.79224 29 ft 14 kts 72°
2026-04-30 10:41 31.14808 121.79313 28 ft 14 kts 156°
2026-04-30 10:42 31.14715 121.79350 28 ft 14 kts 162°
2026-04-30 10:42 31.14620 121.79386 28 ft 15 kts 162°
2026-04-30 10:42 31.14519 121.79424 28 ft 16 kts 162°
2026-04-30 10:42 31.14410 121.79465 28 ft 17 kts 162°
2026-04-30 10:43 31.14299 121.79507 28 ft 17 kts 162°
2026-04-30 10:43 31.14186 121.79550 28 ft 16 kts 162°
2026-04-30 10:43 31.14126 121.79622 28 ft 14 kts 87°
2026-04-30 10:43 31.14139 121.79737 28 ft 14 kts 75°
2026-04-30 10:44 31.14173 121.79862 28 ft 20 kts 72°
2026-04-30 10:44 31.14220 121.80032 28 ft 23 kts 72°
2026-04-30 10:44 31.14269 121.80207 28 ft 23 kts 72°
2026-04-30 10:44 31.14317 121.80383 28 ft 23 kts 72°
2026-04-30 10:45 31.14363 121.80551 28 ft 20 kts 72°
2026-04-30 10:45 31.14407 121.80708 28 ft 20 kts 71°
2026-04-30 10:45 31.14451 121.80866 28 ft 20 kts 72°
2026-04-30 10:45 31.14495 121.81023 28 ft 20 kts 72°
2026-04-30 10:46 31.14536 121.81170 28 ft 18 kts 72°
2026-04-30 10:46 31.14559 121.81256 28 ft 11 kts 72°
2026-04-30 10:46 31.14604 121.81324 28 ft 12 kts 11°
2026-04-30 10:46 31.14710 121.81288 28 ft 19 kts 342°
2026-04-30 10:47 31.14789 121.81258 28 ft 1 kts 342°
2026-04-30 10:47 31.14847 121.81236 28 ft 12 kts 342°
2026-04-30 10:47 31.14927 121.81206 28 ft 12 kts 342°
2026-04-30 10:47 31.15012 121.81174 28 ft 13 kts 341°
2026-04-30 10:48 31.15102 121.81139 28 ft 14 kts 343°
2026-04-30 10:48 31.15195 121.81104 28 ft 14 kts 342°
2026-04-30 10:48 31.15289 121.81070 28 ft 14 kts 342°
2026-04-30 10:48 31.15370 121.81014 27 ft 14 kts 287°
2026-04-30 10:49 31.15356 121.80943 27 ft 15 kts 253°
2026-04-30 10:49 31.15308 121.80864 28 ft 11 kts 189°
2026-04-30 10:49 31.15246 121.80878 28 ft 0 kts 166°
2026-04-30 10:49 31.15243 121.80875 28 ft 3 kts 203°
2026-04-30 10:50 31.15233 121.80836 28 ft 3 kts 259°
2026-04-30 10:50 31.15226 121.80807 28 ft 4 kts 253°
2026-04-30 10:50 31.15222 121.80790 28 ft 1 kts 252°
2026-04-30 10:50 31.15220 121.80785 28 ft 0 kts 252°